^^

Weather Underground History

Daily Summary for October 11, 2018 Units:  Metric    English   Both
Daily Weekly Monthly Yearly Custom
  High: Low: Average:
Temperature: 19 °C 13 °C 15.3 °C
Dew Point: 14 °C 11 °C 12.4 °C
Humidity: 92% 69% 84%
Wind Speed: 19km/h 2km/h 10.8km/h
Wind Gust: 43km/h - -
Wind- - SSE
Pressure: 1004.78 hPa 998.88 hPa -
Precipitation: 0 mm    
Historical Graphs
 
 
Tabular Data for October 11, 2018
Time Temperature Dew Point Pressure Wind Wind Speed Wind Gust Humidity Rainfall Rate (Hourly) solar
00:04 13 °C 11 °C 1004.78 hPa ESE 9 km/h 18 km/h 89% 0 mm 0 W/m2
00:09 13 °C 11 °C 1004.74 hPa ESE 10 km/h 18 km/h 90% 0 mm 0 W/m2
00:14 13 °C 11 °C 1004.57 hPa E 9 km/h 19 km/h 90% 0 mm 0 W/m2
00:19 13 °C 11 °C 1004.34 hPa ESE 9 km/h 13 km/h 90% 0 mm 0 W/m2
00:24 13 °C 11 °C 1004.3 hPa E 9 km/h 13 km/h 90% 0 mm 0 W/m2
00:29 13 °C 11 °C 1004.23 hPa E 10 km/h 14 km/h 90% 0 mm 0 W/m2
00:34 13 °C 11 °C 1004.13 hPa E 9 km/h 14 km/h 91% 0 mm 0 W/m2
00:39 13 °C 12 °C 1004.06 hPa E 9 km/h 14 km/h 91% 0 mm 0 W/m2
00:44 13 °C 12 °C 1004 hPa E 9 km/h 14 km/h 91% 0 mm 0 W/m2
00:49 13 °C 12 °C 1003.93 hPa E 6 km/h 13 km/h 91% 0 mm 0 W/m2
00:54 13 °C 12 °C 1003.89 hPa E 6 km/h 10 km/h 91% 0 mm 0 W/m2
00:59 13 °C 12 °C 1003.83 hPa E 5 km/h 11 km/h 91% 0 mm 0 W/m2
01:04 13 °C 12 °C 1003.79 hPa E 4 km/h 10 km/h 91% 0 mm 0 W/m2
01:09 13 °C 12 °C 1003.76 hPa E 4 km/h 10 km/h 91% 0 mm 0 W/m2
01:14 13 °C 12 °C 1003.59 hPa E 6 km/h 10 km/h 91% 0 mm 0 W/m2
01:19 13 °C 12 °C 1003.49 hPa E 4 km/h 11 km/h 91% 0 mm 0 W/m2
01:24 13 °C 12 °C 1003.39 hPa E 3 km/h 8 km/h 91% 0 mm 0 W/m2
01:29 13 °C 12 °C 1003.42 hPa E 2 km/h 8 km/h 91% 0 mm 0 W/m2
01:34 13 °C 11 °C 1003.49 hPa E 5 km/h 10 km/h 91% 0 mm 0 W/m2
01:39 13 °C 11 °C 1003.45 hPa ESE 7 km/h 13 km/h 91% 0 mm 0 W/m2
01:44 13 °C 11 °C 1003.25 hPa ESE 7 km/h 13 km/h 91% 0 mm 0 W/m2
01:49 13 °C 11 °C 1003.22 hPa E 7 km/h 13 km/h 91% 0 mm 0 W/m2
01:54 13 °C 11 °C 1003.22 hPa E 7 km/h 13 km/h 91% 0 mm 0 W/m2
01:59 13 °C 11 °C 1003.25 hPa E 7 km/h 11 km/h 91% 0 mm 0 W/m2
02:04 13 °C 11 °C 1003.25 hPa ESE 7 km/h 11 km/h 91% 0 mm 0 W/m2
02:09 13 °C 11 °C 1003.08 hPa E 6 km/h 11 km/h 91% 0 mm 0 W/m2
02:14 13 °C 11 °C 1002.95 hPa E 7 km/h 10 km/h 91% 0 mm 0 W/m2
02:19 13 °C 11 °C 1002.91 hPa E 9 km/h 13 km/h 91% 0 mm 0 W/m2
02:24 13 °C 12 °C 1002.85 hPa E 9 km/h 13 km/h 92% 0 mm 0 W/m2
02:29 13 °C 12 °C 1002.68 hPa E 8 km/h 13 km/h 92% 0 mm 0 W/m2
02:34 13 °C 12 °C 1002.54 hPa E 9 km/h 13 km/h 92% 0 mm 0 W/m2
02:39 13 °C 11 °C 1002.37 hPa E 9 km/h 14 km/h 92% 0 mm 0 W/m2
02:44 13 °C 11 °C 1002.27 hPa E 10 km/h 13 km/h 92% 0 mm 0 W/m2
02:49 13 °C 11 °C 1002.2 hPa ESE 10 km/h 14 km/h 92% 0 mm 0 W/m2
02:54 13 °C 11 °C 1002 hPa ESE 10 km/h 14 km/h 92% 0 mm 0 W/m2
02:59 13 °C 11 °C 1001.93 hPa ESE 11 km/h 18 km/h 92% 0 mm 0 W/m2
03:04 13 °C 11 °C 1001.96 hPa ESE 11 km/h 18 km/h 92% 0 mm 0 W/m2
03:09 13 °C 11 °C 1001.9 hPa ESE 12 km/h 21 km/h 92% 0 mm 0 W/m2
03:14 13 °C 12 °C 1001.86 hPa ESE 11 km/h 18 km/h 92% 0 mm 0 W/m2
03:19 13 °C 12 °C 1001.86 hPa ESE 11 km/h 18 km/h 92% 0 mm 0 W/m2
03:24 13 °C 12 °C 1001.73 hPa ESE 11 km/h 14 km/h 92% 0 mm 0 W/m2
03:29 13 °C 12 °C 1001.69 hPa ESE 11 km/h 19 km/h 92% 0 mm 0 W/m2
03:34 13 °C 12 °C 1001.69 hPa ESE 11 km/h 18 km/h 92% 0 mm 0 W/m2
03:39 13 °C 12 °C 1001.59 hPa ESE 10 km/h 18 km/h 92% 0 mm 0 W/m2
03:44 13 °C 12 °C 1001.56 hPa ESE 10 km/h 14 km/h 92% 0 mm 0 W/m2
03:49 13 °C 12 °C 1001.39 hPa ESE 9 km/h 14 km/h 92% 0 mm 0 W/m2
03:54 13 °C 12 °C 1001.32 hPa ESE 9 km/h 13 km/h 92% 0 mm 0 W/m2
03:59 13 °C 12 °C 1001.19 hPa ESE 8 km/h 13 km/h 92% 0 mm 0 W/m2
04:04 13 °C 12 °C 1001.19 hPa ESE 5 km/h 11 km/h 92% 0 mm 0 W/m2
04:09 13 °C 12 °C 1001.15 hPa SE 7 km/h 11 km/h 92% 0 mm 0 W/m2
04:14 13 °C 12 °C 1001.22 hPa SE 8 km/h 13 km/h 92% 0 mm 0 W/m2
04:19 13 °C 12 °C 1001.22 hPa ESE 11 km/h 19 km/h 92% 0 mm 0 W/m2
04:24 13 °C 12 °C 1001.08 hPa ESE 12 km/h 19 km/h 92% 0 mm 0 W/m2
04:29 13 °C 12 °C 1001.02 hPa ESE 13 km/h 21 km/h 91% 0 mm 0 W/m2
04:34 13 °C 12 °C 1000.85 hPa ESE 11 km/h 19 km/h 91% 0 mm 0 W/m2
04:39 13 °C 12 °C 1000.88 hPa ESE 10 km/h 18 km/h 91% 0 mm 0 W/m2
04:44 13 °C 11 °C 1000.95 hPa ESE 10 km/h 18 km/h 91% 0 mm 0 W/m2
04:49 13 °C 11 °C 1000.95 hPa ESE 11 km/h 18 km/h 91% 0 mm 0 W/m2
04:54 13 °C 12 °C 1000.95 hPa ESE 10 km/h 18 km/h 92% 0 mm 0 W/m2
04:59 13 °C 11 °C 1000.98 hPa ESE 9 km/h 14 km/h 91% 0 mm 0 W/m2
05:04 13 °C 11 °C 1001.02 hPa ESE 11 km/h 14 km/h 92% 0 mm 0 W/m2
05:09 13 °C 12 °C 1000.91 hPa ESE 10 km/h 18 km/h 92% 0 mm 0 W/m2
05:14 13 °C 12 °C 1000.88 hPa ESE 10 km/h 14 km/h 92% 0 mm 0 W/m2
05:19 13 °C 12 °C 1000.78 hPa ESE 9 km/h 14 km/h 92% 0 mm 0 W/m2
05:24 13 °C 11 °C 1000.78 hPa ESE 10 km/h 18 km/h 92% 0 mm 0 W/m2
05:29 13 °C 11 °C 1000.71 hPa ESE 10 km/h 18 km/h 92% 0 mm 0 W/m2
05:34 13 °C 11 °C 1000.61 hPa ESE 9 km/h 18 km/h 92% 0 mm 0 W/m2
05:39 13 °C 11 °C 1000.47 hPa ESE 9 km/h 18 km/h 92% 0 mm 0 W/m2
05:44 13 °C 11 °C 1000.47 hPa E 9 km/h 13 km/h 92% 0 mm 0 W/m2
05:49 13 °C 11 °C 1000.68 hPa E 9 km/h 13 km/h 92% 0 mm 0 W/m2
05:54 13 °C 12 °C 1000.68 hPa ESE 9 km/h 14 km/h 92% 0 mm 0 W/m2
05:59 13 °C 12 °C 1000.54 hPa ESE 8 km/h 13 km/h 92% 0 mm 0 W/m2
06:04 13 °C 12 °C 1000.41 hPa ESE 10 km/h 18 km/h 92% 0 mm 0 W/m2
06:09 13 °C 12 °C 1000.51 hPa SE 9 km/h 14 km/h 92% 0 mm 0 W/m2
06:14 13 °C 12 °C 1000.51 hPa SE 11 km/h 21 km/h 92% 0 mm 0 W/m2
06:19 13 °C 12 °C 1000.51 hPa SE 11 km/h 19 km/h 92% 0 mm 0 W/m2
06:24 13 °C 12 °C 1000.47 hPa ESE 9 km/h 18 km/h 92% 0 mm 0 W/m2
06:29 13 °C 12 °C 1000.37 hPa ESE 11 km/h 18 km/h 92% 0 mm 0 W/m2
06:34 13 °C 12 °C 1000.34 hPa SE 11 km/h 27 km/h 92% 0 mm 0 W/m2
06:39 13 °C 12 °C 1000.41 hPa SE 11 km/h 19 km/h 92% 0 mm 0 W/m2
06:44 13 °C 12 °C 1000.41 hPa SE 9 km/h 16 km/h 92% 0 mm 0 W/m2
06:49 13 °C 12 °C 1000.47 hPa SE 10 km/h 16 km/h 92% 0 mm 0 W/m2
06:54 14 °C 12 °C 1000.44 hPa ESE 9 km/h 18 km/h 92% 0 mm 0 W/m2
06:59 14 °C 12 °C 1000.47 hPa ESE 11 km/h 18 km/h 92% 0 mm 0 W/m2
07:04 14 °C 12 °C 1000.37 hPa SE 8 km/h 19 km/h 91% 0 mm 0 W/m2
07:09 14 °C 12 °C 1000.31 hPa ESE 8 km/h 19 km/h 91% 0 mm 0 W/m2
07:14 14 °C 12 °C 1000.2 hPa ESE 8 km/h 14 km/h 91% 0 mm 0 W/m2
07:19 14 °C 12 °C 1000.14 hPa ESE 8 km/h 14 km/h 91% 0 mm 0 W/m2
07:24 14 °C 12 °C 1000.17 hPa ESE 10 km/h 18 km/h 91% 0 mm 0 W/m2
07:29 14 °C 12 °C 1000.34 hPa ESE 8 km/h 18 km/h 91% 0 mm 0 W/m2
07:34 14 °C 12 °C 1000.51 hPa SE 8 km/h 14 km/h 91% 0 mm 0 W/m2
07:39 14 °C 12 °C 1000.37 hPa ESE 8 km/h 14 km/h 91% 0 mm 0 W/m2
07:44 14 °C 12 °C 1000.47 hPa SE 7 km/h 14 km/h 91% 0 mm 0 W/m2
07:49 14 °C 12 °C 1000.51 hPa SE 10 km/h 18 km/h 91% 0 mm 0 W/m2
07:54 14 °C 12 °C 1000.54 hPa SE 10 km/h 23 km/h 91% 0 mm 0 W/m2
07:59 14 °C 12 °C 1000.68 hPa SE 10 km/h 23 km/h 91% 0 mm 5 W/m2
08:04 14 °C 12 °C 1000.78 hPa SE 9 km/h 18 km/h 91% 0 mm 7 W/m2
08:09 14 °C 12 °C 1000.75 hPa SE 10 km/h 18 km/h 91% 0 mm 7 W/m2
08:14 14 °C 13 °C 1000.64 hPa SE 9 km/h 18 km/h 92% 0 mm 14 W/m2
08:19 14 °C 13 °C 1000.71 hPa SE 11 km/h 19 km/h 92% 0 mm 21 W/m2
08:24 14 °C 13 °C 1000.71 hPa SE 11 km/h 21 km/h 92% 0 mm 26 W/m2
08:29 14 °C 12 °C 1000.71 hPa SE 11 km/h 18 km/h 91% 0 mm 28 W/m2
08:34 14 °C 12 °C 1000.61 hPa SE 10 km/h 18 km/h 91% 0 mm 37 W/m2
08:39 14 °C 12 °C 1000.61 hPa SE 9 km/h 18 km/h 91% 0 mm 47 W/m2
08:44 14 °C 12 °C 1000.75 hPa SE 9 km/h 19 km/h 91% 0 mm 60 W/m2
08:49 14 °C 13 °C 1000.71 hPa SE 10 km/h 19 km/h 91% 0 mm 76 W/m2
08:54 14 °C 13 °C 1000.68 hPa SE 10 km/h 21 km/h 91% 0 mm 156 W/m2
08:59 14 °C 13 °C 1000.71 hPa SSE 9 km/h 19 km/h 91% 0 mm 83 W/m2
09:04 14 °C 13 °C 1000.64 hPa SSE 8 km/h 19 km/h 91% 0 mm 223 W/m2
09:09 14 °C 13 °C 1000.44 hPa SSE 11 km/h 23 km/h 91% 0 mm 229 W/m2
09:14 14 °C 13 °C 1000.58 hPa SSE 10 km/h 23 km/h 90% 0 mm 227 W/m2
09:19 15 °C 13 °C 1000.81 hPa SSE 12 km/h 26 km/h 89% 0 mm 202 W/m2
09:24 15 °C 13 °C 1000.81 hPa SSE 11 km/h 26 km/h 88% 0 mm 144 W/m2
09:29 15 °C 13 °C 1000.75 hPa S 14 km/h 24 km/h 88% 0 mm 116 W/m2
09:34 15 °C 13 °C 1000.75 hPa SSE 12 km/h 24 km/h 88% 0 mm 118 W/m2
09:39 15 °C 13 °C 1000.71 hPa SSE 11 km/h 24 km/h 88% 0 mm 142 W/m2
09:44 15 °C 13 °C 1000.71 hPa S 12 km/h 21 km/h 87% 0 mm 120 W/m2
09:49 15 °C 13 °C 1000.71 hPa S 10 km/h 21 km/h 87% 0 mm 102 W/m2
09:54 15 °C 13 °C 1000.68 hPa SSE 10 km/h 21 km/h 87% 0 mm 81 W/m2
09:59 15 °C 13 °C 1000.68 hPa S 12 km/h 26 km/h 86% 0 mm 77 W/m2
10:04 15 °C 13 °C 1000.68 hPa S 8 km/h 19 km/h 86% 0 mm 95 W/m2
10:09 15 °C 13 °C 1000.68 hPa S 13 km/h 23 km/h 86% 0 mm 146 W/m2
10:14 15 °C 13 °C 1000.44 hPa S 13 km/h 26 km/h 85% 0 mm 216 W/m2
10:19 16 °C 13 °C 1000.37 hPa S 10 km/h 24 km/h 85% 0 mm 197 W/m2
10:24 16 °C 13 °C 1000.37 hPa SSE 11 km/h 26 km/h 85% 0 mm 445 W/m2
10:29 16 °C 13 °C 1000.41 hPa SSE 14 km/h 23 km/h 84% 0 mm 445 W/m2
10:34 16 °C 13 °C 1000.41 hPa S 13 km/h 23 km/h 83% 0 mm 466 W/m2
10:39 16 °C 13 °C 1000.27 hPa SSE 10 km/h 19 km/h 84% 0 mm 496 W/m2
10:44 16 °C 13 °C 1000.27 hPa SSE 14 km/h 29 km/h 82% 0 mm 457 W/m2
10:49 16 °C 13 °C 1000.2 hPa SSE 14 km/h 29 km/h 82% 0 mm 434 W/m2
10:54 16 °C 13 °C 1000.17 hPa S 14 km/h 27 km/h 81% 0 mm 436 W/m2
10:59 17 °C 13 °C 1000.34 hPa SSE 12 km/h 23 km/h 81% 0 mm 438 W/m2
11:04 17 °C 13 °C 1000.37 hPa S 14 km/h 29 km/h 80% 0 mm 466 W/m2
11:09 17 °C 13 °C 1000.51 hPa SSE 13 km/h 29 km/h 80% 0 mm 468 W/m2
11:14 17 °C 13 °C 1000.54 hPa SSE 14 km/h 29 km/h 79% 0 mm 494 W/m2
11:19 17 °C 13 °C 1000.61 hPa SSE 17 km/h 34 km/h 79% 0 mm 457 W/m2
11:24 17 °C 13 °C 1000.75 hPa SSE 13 km/h 31 km/h 79% 0 mm 536 W/m2
11:29 17 °C 13 °C 1000.78 hPa SSE 11 km/h 31 km/h 79% 0 mm 332 W/m2
11:34 17 °C 13 °C 1000.88 hPa SSE 12 km/h 29 km/h 79% 0 mm 244 W/m2
11:39 17 °C 13 °C 1000.88 hPa SSE 10 km/h 18 km/h 80% 0 mm 149 W/m2
11:44 17 °C 13 °C 1000.88 hPa S 11 km/h 23 km/h 80% 0 mm 348 W/m2
11:49 17 °C 13 °C 1000.95 hPa SSW 8 km/h 18 km/h 79% 0 mm 142 W/m2
11:54 17 °C 13 °C 1001.02 hPa S 14 km/h 32 km/h 78% 0 mm 221 W/m2
11:59 17 °C 13 °C 1001.02 hPa S 14 km/h 32 km/h 77% 0 mm 279 W/m2
12:04 17 °C 13 °C 1001.02 hPa SSW 13 km/h 26 km/h 77% 0 mm 248 W/m2
12:09 17 °C 13 °C 1000.91 hPa SSW 10 km/h 19 km/h 77% 0 mm 172 W/m2
12:14 17 °C 13 °C 1000.95 hPa S 12 km/h 31 km/h 77% 0 mm 146 W/m2
12:19 17 °C 13 °C 1000.98 hPa S 12 km/h 27 km/h 77% 0 mm 248 W/m2
12:24 17 °C 13 °C 1000.91 hPa S 9 km/h 21 km/h 77% 0 mm 239 W/m2
12:29 17 °C 13 °C 1000.88 hPa S 10 km/h 19 km/h 77% 0 mm 241 W/m2
12:34 17 °C 13 °C 1000.85 hPa S 7 km/h 19 km/h 78% 0 mm 279 W/m2
12:39 17 °C 13 °C 1000.78 hPa S 6 km/h 18 km/h 78% 0 mm 220 W/m2
12:44 17 °C 13 °C 1000.88 hPa SSE 10 km/h 19 km/h 78% 0 mm 267 W/m2
12:49 17 °C 13 °C 1000.81 hPa SSE 9 km/h 19 km/h 77% 0 mm 383 W/m2
12:54 17 °C 14 °C 1000.68 hPa SE 11 km/h 19 km/h 78% 0 mm 383 W/m2
12:59 18 °C 13 °C 1000.47 hPa S 10 km/h 21 km/h 76% 0 mm 246 W/m2
13:04 18 °C 13 °C 1000.41 hPa SSE 11 km/h 24 km/h 76% 0 mm 211 W/m2
13:09 18 °C 13 °C 1000.31 hPa SSE 10 km/h 21 km/h 75% 0 mm 573 W/m2
13:14 18 °C 13 °C 1000.31 hPa SSE 10 km/h 21 km/h 74% 0 mm 207 W/m2
13:19 18 °C 13 °C 1000.27 hPa SE 9 km/h 14 km/h 75% 0 mm 186 W/m2
13:24 18 °C 13 °C 1000.2 hPa SE 9 km/h 16 km/h 75% 0 mm 185 W/m2
13:29 17 °C 13 °C 1000.17 hPa SSE 9 km/h 21 km/h 75% 0 mm 174 W/m2
13:34 17 °C 13 °C 1000.17 hPa SSE 8 km/h 21 km/h 76% 0 mm 151 W/m2
13:39 17 °C 13 °C 1000.14 hPa SE 7 km/h 18 km/h 76% 0 mm 153 W/m2
13:44 17 °C 13 °C 1000.14 hPa SE 13 km/h 23 km/h 76% 0 mm 162 W/m2
13:49 17 °C 13 °C 1000.07 hPa SE 10 km/h 19 km/h 76% 0 mm 174 W/m2
13:54 17 °C 13 °C 1000.07 hPa SE 11 km/h 21 km/h 76% 0 mm 167 W/m2
13:59 17 °C 13 °C 999.97 hPa SE 11 km/h 21 km/h 76% 0 mm 135 W/m2
14:04 17 °C 13 °C 999.97 hPa SE 11 km/h 23 km/h 76% 0 mm 185 W/m2
14:09 17 °C 13 °C 999.9 hPa SE 11 km/h 21 km/h 76% 0 mm 197 W/m2
14:14 17 °C 13 °C 999.59 hPa SE 9 km/h 21 km/h 76% 0 mm 197 W/m2
14:19 18 °C 13 °C 999.63 hPa SE 10 km/h 19 km/h 76% 0 mm 162 W/m2
14:24 18 °C 13 °C 999.66 hPa SE 10 km/h 23 km/h 75% 0 mm 135 W/m2
14:29 18 °C 13 °C 999.66 hPa SE 13 km/h 29 km/h 74% 0 mm 111 W/m2
14:34 18 °C 13 °C 999.53 hPa SE 15 km/h 29 km/h 73% 0 mm 120 W/m2
14:39 18 °C 13 °C 999.46 hPa SE 16 km/h 32 km/h 72% 0 mm 165 W/m2
14:44 18 °C 13 °C 999.15 hPa SE 13 km/h 23 km/h 72% 0 mm 214 W/m2
14:49 18 °C 13 °C 998.98 hPa SE 13 km/h 26 km/h 72% 0 mm 519 W/m2
14:54 18 °C 13 °C 999.05 hPa SE 14 km/h 26 km/h 71% 0 mm 519 W/m2
14:59 18 °C 13 °C 999.19 hPa SE 17 km/h 34 km/h 70% 0 mm 223 W/m2
15:04 18 °C 13 °C 999.19 hPa SE 17 km/h 34 km/h 70% 0 mm 457 W/m2
15:09 19 °C 13 °C 999.12 hPa SE 16 km/h 26 km/h 70% 0 mm 313 W/m2
15:14 19 °C 13 °C 999.05 hPa SE 16 km/h 31 km/h 70% 0 mm 308 W/m2
15:19 19 °C 13 °C 998.88 hPa SE 16 km/h 26 km/h 70% 0 mm 149 W/m2
15:24 19 °C 13 °C 998.88 hPa SE 12 km/h 26 km/h 70% 0 mm 408 W/m2
15:29 19 °C 13 °C 998.95 hPa SE 18 km/h 35 km/h 70% 0 mm 408 W/m2
15:34 19 °C 13 °C 999.02 hPa SSE 18 km/h 35 km/h 69% 0 mm 206 W/m2
15:39 19 °C 13 °C 999.22 hPa SSE 16 km/h 31 km/h 70% 0 mm 158 W/m2
15:44 19 °C 13 °C 999.22 hPa SSE 16 km/h 34 km/h 70% 0 mm 90 W/m2
15:49 19 °C 13 °C 999.36 hPa SE 15 km/h 27 km/h 71% 0 mm 83 W/m2
15:54 19 °C 13 °C 999.29 hPa SSE 14 km/h 27 km/h 71% 0 mm 67 W/m2
15:59 19 °C 13 °C 999.29 hPa S 17 km/h 27 km/h 71% 0 mm 67 W/m2
16:04 19 °C 13 °C 999.42 hPa S 17 km/h 31 km/h 70% 0 mm 67 W/m2
16:09 19 °C 13 °C 999.49 hPa S 14 km/h 31 km/h 70% 0 mm 69 W/m2
16:14 19 °C 13 °C 999.63 hPa S 16 km/h 34 km/h 71% 0 mm 97 W/m2
16:19 19 °C 13 °C 999.59 hPa SSE 14 km/h 32 km/h 71% 0 mm 100 W/m2
16:24 19 °C 13 °C 999.56 hPa SSE 19 km/h 32 km/h 71% 0 mm 84 W/m2
16:29 18 °C 13 °C 999.59 hPa S 13 km/h 29 km/h 72% 0 mm 83 W/m2
16:34 18 °C 13 °C 999.63 hPa SSE 15 km/h 29 km/h 72% 0 mm 56 W/m2
16:39 18 °C 13 °C 999.66 hPa S 14 km/h 26 km/h 72% 0 mm 42 W/m2
16:44 18 °C 13 °C 999.73 hPa S 17 km/h 34 km/h 72% 0 mm 46 W/m2
16:49 18 °C 13 °C 999.73 hPa S 17 km/h 34 km/h 72% 0 mm 40 W/m2
16:54 18 °C 13 °C 999.9 hPa S 17 km/h 34 km/h 71% 0 mm 53 W/m2
16:59 18 °C 13 °C 999.97 hPa S 19 km/h 35 km/h 71% 0 mm 47 W/m2
17:04 18 °C 13 °C 1000 hPa S 17 km/h 31 km/h 71% 0 mm 23 W/m2
17:09 18 °C 13 °C 999.9 hPa S 12 km/h 35 km/h 71% 0 mm 11 W/m2
17:14 18 °C 13 °C 999.87 hPa S 16 km/h 35 km/h 72% 0 mm 23 W/m2
17:19 18 °C 13 °C 1000 hPa S 12 km/h 27 km/h 72% 0 mm 32 W/m2
17:24 18 °C 13 °C 1000.17 hPa SSE 16 km/h 31 km/h 73% 0 mm 35 W/m2
17:29 18 °C 13 °C 1000.17 hPa S 16 km/h 29 km/h 73% 0 mm 35 W/m2
17:34 18 °C 13 °C 1000.1 hPa SSE 13 km/h 26 km/h 73% 0 mm 32 W/m2
17:39 18 °C 13 °C 999.93 hPa SSE 15 km/h 34 km/h 74% 0 mm 30 W/m2
17:44 18 °C 13 °C 1000.07 hPa SSE 11 km/h 34 km/h 74% 0 mm 23 W/m2
17:49 18 °C 13 °C 1000.14 hPa SSE 14 km/h 24 km/h 75% 0 mm 19 W/m2
17:54 18 °C 13 °C 1000.37 hPa S 14 km/h 29 km/h 75% 0 mm 18 W/m2
17:59 18 °C 13 °C 1000.47 hPa S 12 km/h 23 km/h 75% 0 mm 12 W/m2
18:04 18 °C 13 °C 1000.61 hPa S 10 km/h 21 km/h 75% 0 mm 9 W/m2
18:09 17 °C 13 °C 1000.64 hPa S 14 km/h 29 km/h 76% 0 mm 7 W/m2
18:14 17 °C 13 °C 1000.64 hPa S 10 km/h 29 km/h 76% 0 mm 5 W/m2
18:19 17 °C 13 °C 1000.64 hPa S 11 km/h 24 km/h 76% 0 mm 0 W/m2
18:24 17 °C 13 °C 1000.71 hPa S 12 km/h 23 km/h 76% 0 mm 0 W/m2
18:29 17 °C 13 °C 1000.81 hPa S 11 km/h 23 km/h 77% 0 mm 0 W/m2
18:34 17 °C 13 °C 1000.81 hPa S 11 km/h 23 km/h 77% 0 mm 0 W/m2
18:39 17 °C 13 °C 1000.88 hPa SSE 11 km/h 23 km/h 77% 0 mm 0 W/m2
18:44 17 °C 13 °C 1000.88 hPa SSE 10 km/h 19 km/h 77% 0 mm 0 W/m2
18:49 17 °C 13 °C 1001.05 hPa S 12 km/h 26 km/h 78% 0 mm 0 W/m2
18:54 17 °C 13 °C 1001.05 hPa S 17 km/h 32 km/h 78% 0 mm 0 W/m2
18:59 17 °C 13 °C 1000.98 hPa SSE 19 km/h 43 km/h 78% 0 mm 0 W/m2
19:04 17 °C 13 °C 1001.02 hPa SSE 13 km/h 27 km/h 78% 0 mm 0 W/m2
19:09 17 °C 13 °C 1000.98 hPa SSE 13 km/h 24 km/h 78% 0 mm 0 W/m2
19:14 17 °C 13 °C 1001.15 hPa SSE 14 km/h 29 km/h 78% 0 mm 0 W/m2
19:19 17 °C 13 °C 1001.05 hPa SSE 14 km/h 31 km/h 79% 0 mm 0 W/m2
19:24 17 °C 13 °C 1001.02 hPa S 13 km/h 24 km/h 79% 0 mm 0 W/m2
19:29 17 °C 13 °C 1001.02 hPa SSE 15 km/h 24 km/h 79% 0 mm 0 W/m2
19:34 17 °C 13 °C 1001.02 hPa S 11 km/h 24 km/h 80% 0 mm 0 W/m2
19:39 17 °C 13 °C 1001.08 hPa S 16 km/h 29 km/h 80% 0 mm 0 W/m2
19:44 17 °C 13 °C 1001.02 hPa S 12 km/h 27 km/h 81% 0 mm 0 W/m2
19:49 16 °C 13 °C 1001.12 hPa S 16 km/h 27 km/h 81% 0 mm 0 W/m2
19:54 16 °C 13 °C 1001.12 hPa S 13 km/h 27 km/h 81% 0 mm 0 W/m2
19:59 16 °C 13 °C 1001.22 hPa S 13 km/h 27 km/h 81% 0 mm 0 W/m2
20:04 16 °C 13 °C 1001.22 hPa S 14 km/h 27 km/h 81% 0 mm 0 W/m2
20:09 16 °C 13 °C 1001.25 hPa S 12 km/h 24 km/h 82% 0 mm 0 W/m2
20:14 16 °C 13 °C 1001.25 hPa S 13 km/h 32 km/h 82% 0 mm 0 W/m2
20:19 16 °C 13 °C 1001.29 hPa S 10 km/h 32 km/h 82% 0 mm 0 W/m2
20:24 16 °C 13 °C 1001.32 hPa SSW 8 km/h 21 km/h 82% 0 mm 0 W/m2
20:29 16 °C 13 °C 1001.42 hPa SSW 10 km/h 19 km/h 82% 0 mm 0 W/m2
20:34 16 °C 13 °C 1001.42 hPa S 13 km/h 27 km/h 82% 0 mm 0 W/m2
20:39 16 °C 13 °C 1001.56 hPa S 11 km/h 27 km/h 82% 0 mm 0 W/m2
20:44 16 °C 13 °C 1001.63 hPa SSW 11 km/h 23 km/h 82% 0 mm 0 W/m2
20:49 16 °C 13 °C 1001.59 hPa S 9 km/h 19 km/h 82% 0 mm 0 W/m2
20:54 16 °C 13 °C 1001.63 hPa SSW 12 km/h 19 km/h 82% 0 mm 0 W/m2
20:59 16 °C 12 °C 1001.69 hPa SSW 12 km/h 23 km/h 82% 0 mm 0 W/m2
21:04 16 °C 12 °C 1001.8 hPa SSW 11 km/h 21 km/h 82% 0 mm 0 W/m2
21:09 16 °C 12 °C 1001.96 hPa SSW 11 km/h 26 km/h 82% 0 mm 0 W/m2
21:14 16 °C 12 °C 1002.03 hPa SSW 12 km/h 21 km/h 82% 0 mm 0 W/m2
21:19 15 °C 12 °C 1002.2 hPa SSW 11 km/h 21 km/h 82% 0 mm 0 W/m2
21:24 15 °C 12 °C 1002.4 hPa SSW 14 km/h 29 km/h 82% 0 mm 0 W/m2
21:29 15 °C 12 °C 1002.54 hPa SSW 14 km/h 29 km/h 82% 0 mm 0 W/m2
21:34 15 °C 12 °C 1002.54 hPa SSW 12 km/h 29 km/h 82% 0 mm 0 W/m2
21:39 15 °C 12 °C 1002.68 hPa SSW 11 km/h 26 km/h 82% 0 mm 0 W/m2
21:44 15 °C 12 °C 1002.68 hPa SSW 11 km/h 19 km/h 82% 0 mm 0 W/m2
21:49 15 °C 12 °C 1002.68 hPa SSW 10 km/h 19 km/h 82% 0 mm 0 W/m2
21:54 15 °C 12 °C 1002.71 hPa SSW 11 km/h 19 km/h 82% 0 mm 0 W/m2
21:59 15 °C 12 °C 1002.71 hPa SSW 9 km/h 19 km/h 82% 0 mm 0 W/m2
22:04 14 °C 12 °C 1002.71 hPa SSW 9 km/h 16 km/h 82% 0 mm 0 W/m2
22:09 14 °C 12 °C 1002.71 hPa SSW 10 km/h 19 km/h 83% 0 mm 0 W/m2
22:14 14 °C 12 °C 1002.85 hPa SSW 9 km/h 18 km/h 83% 0 mm 0 W/m2
22:19 14 °C 12 °C 1002.81 hPa SSW 9 km/h 18 km/h 84% 0 mm 0 W/m2
22:24 14 °C 12 °C 1002.71 hPa SSW 6 km/h 14 km/h 84% 0 mm 0 W/m2
22:29 14 °C 12 °C 1002.88 hPa SSW 7 km/h 18 km/h 84% 0 mm 0 W/m2
22:34 14 °C 12 °C 1002.88 hPa SSW 8 km/h 18 km/h 84% 0 mm 0 W/m2
22:39 14 °C 12 °C 1002.88 hPa S 9 km/h 14 km/h 84% 0 mm 0 W/m2
22:44 14 °C 12 °C 1002.85 hPa S 6 km/h 19 km/h 84% 0 mm 0 W/m2
22:49 14 °C 12 °C 1002.88 hPa S 7 km/h 18 km/h 85% 0 mm 0 W/m2
22:54 14 °C 12 °C 1002.91 hPa SSW 9 km/h 19 km/h 85% 0 mm 0 W/m2
22:59 14 °C 12 °C 1002.85 hPa SSW 6 km/h 11 km/h 85% 0 mm 0 W/m2
23:04 14 °C 12 °C 1002.81 hPa SSW 8 km/h 14 km/h 85% 0 mm 0 W/m2
23:09 14 °C 12 °C 1002.85 hPa SW 8 km/h 18 km/h 86% 0 mm 0 W/m2
23:14 14 °C 12 °C 1002.81 hPa SSW 8 km/h 14 km/h 86% 0 mm 0 W/m2
23:19 14 °C 12 °C 1002.88 hPa SSW 8 km/h 18 km/h 86% 0 mm 0 W/m2
23:24 14 °C 11 °C 1002.98 hPa S 7 km/h 18 km/h 86% 0 mm 0 W/m2
23:29 13 °C 11 °C 1003.05 hPa SSW 6 km/h 16 km/h 86% 0 mm 0 W/m2
23:34 13 °C 11 °C 1003.15 hPa S 6 km/h 16 km/h 86% 0 mm 0 W/m2
23:39 13 °C 11 °C 1003.15 hPa S 5 km/h 16 km/h 87% 0 mm 0 W/m2
23:44 13 °C 11 °C 1003.15 hPa SSW 6 km/h 14 km/h 86% 0 mm 0 W/m2
23:49 13 °C 11 °C 1003.35 hPa SSW 7 km/h 14 km/h 86% 0 mm 0 W/m2
23:54 13 °C 11 °C 1003.39 hPa SSW 7 km/h 14 km/h 86% 0 mm 0 W/m2
23:59 13 °C 11 °C 1003.42 hPa SSW 7 km/h 18 km/h 86% 0 mm 0 W/m2
Compliments of Weather Underground - 4 mb